Data No,UTC Date,UTC Time,Latitude,Longitude,Course(deg),Temp(degC),Sal(psu)
4672,2006/9/8,19:26:06, 23-54.372N,119-59.941E,193.2,29.0984,33.7285
4673,2006/9/8,19:27:06, 23-54.151N,119-59.874E,195.6,29.1001,33.7217
4674,2006/9/8,19:28:06, 23-53.931N,119-59.809E,194.1,29.1256,33.7187
4675,2006/9/8,19:29:06, 23-53.709N,119-59.743E,196.7,29.1121,33.7183
4676,2006/9/8,19:30:06, 23-53.487N,119-59.676E,195.1,29.1052,33.7166
4677,2006/9/8,19:31:06, 23-53.265N,119-59.610E,195.6,29.1164,33.7159
4678,2006/9/8,19:32:06, 23-53.043N,119-59.547E,197.7,29.1064,33.7176
4679,2006/9/8,19:33:06, 23-52.825N,119-59.483E,196.9,29.0898,33.7168
4680,2006/9/8,19:34:06, 23-52.606N,119-59.424E,192.9,29.0643,33.7116
4681,2006/9/8,19:35:06, 23-52.386N,119-59.365E,192.7,29.0215,33.7054
4682,2006/9/8,19:36:06, 23-52.176N,119-59.277E,200.9,28.8573,33.707
4683,2006/9/8,19:37:06, 23-51.965N,119-59.186E,204.7,28.8686,33.7148
4684,2006/9/8,19:38:06, 23-51.756N,119-59.088E,205.1,28.8532,33.7334
4685,2006/9/8,19:39:06, 23-51.546N,119-58.986E,204.6,29.0003,33.7471
4686,2006/9/8,19:40:06, 23-51.336N,119-58.883E,207.6,29.0901,33.7496
4687,2006/9/8,19:41:06, 23-51.125N,119-58.781E,204.6,29.0891,33.7394
4688,2006/9/8,19:42:06, 23-50.914N,119-58.689E,190,29.1303,33.7272
4689,2006/9/8,19:43:06, 23-50.694N,119-58.640E,195.2,29.131,33.7206
4690,2006/9/8,19:44:06, 23-50.473N,119-58.587E,194.4,29.1552,33.7148
4691,2006/9/8,19:45:06, 23-50.251N,119-58.531E,192.8,29.1999,33.713
4692,2006/9/8,19:46:06, 23-50.027N,119-58.477E,193.8,29.2017,33.7116
4693,2006/9/8,19:47:06, 23-49.802N,119-58.426E,191.9,29.2356,33.7084
4694,2006/9/8,19:48:06, 23-49.577N,119-58.378E,193.1,29.2408,33.7055
4695,2006/9/8,19:49:06, 23-49.351N,119-58.322E,195.6,29.2727,33.7047
4696,2006/9/8,19:50:06, 23-49.124N,119-58.267E,194.4,29.2827,33.7021
4697,2006/9/8,19:51:06, 23-48.899N,119-58.212E,193.4,29.2915,33.6968
4698,2006/9/8,19:52:06, 23-48.674N,119-58.158E,192.1,29.2625,33.6938
4699,2006/9/8,19:53:06, 23-48.453N,119-58.115E,191.4,29.2159,33.6917
4700,2006/9/8,19:54:06, 23-48.236N,119-58.074E,191.1,29.4026,33.6926
4701,2006/9/8,19:55:06, 23-48.021N,119-58.030E,191.6,29.5475,33.6884
4702,2006/9/8,19:56:06, 23-47.807N,119-57.979E,191.8,29.6311,33.6612
4703,2006/9/8,19:57:06, 23-47.594N,119-57.934E,193.3,29.5858,33.6289
4704,2006/9/8,19:58:06, 23-47.382N,119-57.889E,191.9,29.6831,33.6082
4705,2006/9/8,19:59:06, 23-47.170N,119-57.847E,194.1,29.7091,33.6068
4706,2006/9/8,20:00:06, 23-46.959N,119-57.797E,192.8,29.7246,33.6057
4707,2006/9/8,20:01:06, 23-46.750N,119-57.747E,191.4,29.7369,33.601
4708,2006/9/8,20:02:06, 23-46.540N,119-57.699E,190.7,29.7304,33.5999
4709,2006/9/8,20:03:06, 23-46.330N,119-57.652E,195.1,29.7307,33.5971
4710,2006/9/8,20:04:06, 23-46.121N,119-57.603E,192.4,29.7416,33.5942
4711,2006/9/8,20:05:06, 23-45.911N,119-57.555E,190.2,29.7385,33.5873
4712,2006/9/8,20:06:06, 23-45.703N,119-57.508E,192.2,29.7053,33.584
4713,2006/9/8,20:07:06, 23-45.494N,119-57.458E,194.3,29.7118,33.5807
4714,2006/9/8,20:08:06, 23-45.288N,119-57.402E,195.5,29.7133,33.5811
4715,2006/9/8,20:09:06, 23-45.084N,119-57.346E,194.1,29.7105,33.5833
4716,2006/9/8,20:10:06, 23-44.878N,119-57.293E,192.3,29.7037,33.5803
4717,2006/9/8,20:11:06, 23-44.673N,119-57.240E,193,29.7052,33.5765
4718,2006/9/8,20:12:06, 23-44.468N,119-57.187E,192.4,29.71,33.5842
4719,2006/9/8,20:13:06, 23-44.264N,119-57.135E,193.3,29.7543,33.5974
4720,2006/9/8,20:14:06, 23-44.059N,119-57.082E,192.5,29.8143,33.6164
4721,2006/9/8,20:15:06, 23-43.852N,119-57.042E,189,29.8319,33.6311
4722,2006/9/8,20:16:06, 23-43.645N,119-56.998E,190,29.8079,33.6456
4723,2006/9/8,20:17:06, 23-43.440N,119-56.954E,190.2,29.803,33.6534
4724,2006/9/8,20:18:06, 23-43.232N,119-56.912E,190.2,29.7825,33.6417
4725,2006/9/8,20:19:06, 23-43.027N,119-56.870E,190.9,29.804,33.631
4726,2006/9/8,20:20:06, 23-42.821N,119-56.828E,192.4,29.7964,33.6271
4727,2006/9/8,20:21:06, 23-42.617N,119-56.787E,188.4,29.8108,33.6261
4728,2006/9/8,20:22:06, 23-42.413N,119-56.744E,188.5,29.7748,33.6222
4729,2006/9/8,20:23:06, 23-42.208N,119-56.701E,193,29.741,33.6174
4730,2006/9/8,20:24:06, 23-42.004N,119-56.657E,191.5,29.7517,33.6098
4731,2006/9/8,20:25:06, 23-41.799N,119-56.615E,193.1,29.7274,33.6206
4732,2006/9/8,20:26:06, 23-41.595N,119-56.570E,192.1,29.6482,33.6376
4733,2006/9/8,20:27:06, 23-41.393N,119-56.517E,192.4,29.543,33.6457
4734,2006/9/8,20:28:06, 23-41.190N,119-56.467E,191.9,29.6418,33.6639
4737,2006/9/8,20:31:06, 23-40.581N,119-56.318E,192.5,29.6168,33.67
4738,2006/9/8,20:32:06, 23-40.380N,119-56.266E,192.5,29.5304,33.6647
4739,2006/9/8,20:33:06, 23-40.177N,119-56.217E,194.4,29.4731,33.6648
4740,2006/9/8,20:34:06, 23-39.976N,119-56.163E,193.3,29.7095,33.684
4741,2006/9/8,20:35:06, 23-39.774N,119-56.108E,194.3,29.6728,33.7046
4742,2006/9/8,20:36:06, 23-39.572N,119-56.055E,194.9,29.6894,33.6968
4743,2006/9/8,20:37:06, 23-39.371N,119-55.999E,192.7,29.6902,33.7098
4744,2006/9/8,20:38:06, 23-39.170N,119-55.946E,194.5,29.6902,33.7154
4745,2006/9/8,20:39:06, 23-38.970N,119-55.893E,193.5,29.6727,33.7056
4746,2006/9/8,20:40:06, 23-38.771N,119-55.840E,195.7,29.6757,33.6974
4747,2006/9/8,20:41:06, 23-38.573N,119-55.779E,196.2,29.6304,33.684
4748,2006/9/8,20:42:06, 23-38.377N,119-55.718E,193,29.5363,33.6952
4749,2006/9/8,20:43:06, 23-38.180N,119-55.662E,197.3,29.3367,33.6944
4750,2006/9/8,20:44:06, 23-37.984N,119-55.605E,193.5,29.6574,33.6872
4751,2006/9/8,20:45:06, 23-37.790N,119-55.548E,193,29.6757,33.7045
4752,2006/9/8,20:46:06, 23-37.596N,119-55.492E,195.1,29.6523,33.6975
4753,2006/9/8,20:47:06, 23-37.401N,119-55.435E,196.9,29.6409,33.6854
4754,2006/9/8,20:48:06, 23-37.208N,119-55.374E,194.9,29.5724,33.7006
4755,2006/9/8,20:49:06, 23-37.016N,119-55.316E,195.2,29.5353,33.7143
4756,2006/9/8,20:50:06, 23-36.824N,119-55.256E,195.4,29.5734,33.7287
4757,2006/9/8,20:51:06, 23-36.633N,119-55.195E,195.7,29.5275,33.731
4758,2006/9/8,20:52:06, 23-36.443N,119-55.137E,196.4,29.6165,33.7251
4759,2006/9/8,20:53:06, 23-36.253N,119-55.078E,198.4,29.5899,33.7183
4760,2006/9/8,20:54:06, 23-36.062N,119-55.018E,196.2,29.552,33.7081
4761,2006/9/8,20:55:06, 23-35.872N,119-54.956E,195.3,29.5676,33.7049
4762,2006/9/8,20:56:06, 23-35.683N,119-54.890E,198.3,29.5154,33.7007
4763,2006/9/8,20:57:06, 23-35.495N,119-54.825E,196.7,29.4958,33.6968
4764,2006/9/8,20:58:06, 23-35.306N,119-54.756E,197.6,29.4936,33.6865
4765,2006/9/8,20:59:06, 23-35.117N,119-54.687E,199.4,29.524,33.6784
4766,2006/9/8,21:00:06, 23-34.928N,119-54.618E,198.6,29.5348,33.6742
4767,2006/9/8,21:01:06, 23-34.738N,119-54.548E,199.3,29.6007,33.6713
4768,2006/9/8,21:02:06, 23-34.551N,119-54.473E,200.1,29.5204,33.6743
4769,2006/9/8,21:03:06, 23-34.364N,119-54.395E,202.3,29.5143,33.6811
4770,2006/9/8,21:04:06, 23-34.176N,119-54.318E,201.9,29.5938,33.6835
4771,2006/9/8,21:05:06, 23-33.986N,119-54.237E,202.1,29.5418,33.6845
4772,2006/9/8,21:06:06, 23-33.797N,119-54.155E,200.4,29.599,33.6896
4773,2006/9/8,21:07:06, 23-33.607N,119-54.074E,199.8,29.6019,33.6881
4774,2006/9/8,21:08:06, 23-33.418N,119-53.995E,204.2,29.6457,33.6931
4775,2006/9/8,21:09:06, 23-33.231N,119-53.916E,201.7,29.6296,33.6961
4776,2006/9/8,21:10:06, 23-33.045N,119-53.835E,205.6,29.6733,33.7001
4777,2006/9/8,21:11:06, 23-32.860N,119-53.755E,201.1,29.6799,33.6977
4778,2006/9/8,21:12:06, 23-32.675N,119-53.676E,201.6,29.666,33.6978
4779,2006/9/8,21:13:06, 23-32.490N,119-53.594E,201.5,29.6708,33.6917
4780,2006/9/8,21:14:06, 23-32.307N,119-53.513E,200.6,29.6397,33.6855
4781,2006/9/8,21:15:06, 23-32.122N,119-53.433E,206.3,29.659,33.6845
4782,2006/9/8,21:16:06, 23-31.938N,119-53.355E,202.3,29.6462,33.6834
4783,2006/9/8,21:17:06, 23-31.755N,119-53.275E,198.6,29.6425,33.6733
4784,2006/9/8,21:18:06, 23-31.570N,119-53.204E,200.2,29.5853,33.6701
4785,2006/9/8,21:19:06, 23-31.387N,119-53.132E,198.8,29.5815,33.6703
4786,2006/9/8,21:20:06, 23-31.204N,119-53.058E,199.9,29.5664,33.6688
4787,2006/9/8,21:21:06, 23-31.022N,119-52.986E,198.6,29.6203,33.6646
4788,2006/9/8,21:22:06, 23-30.837N,119-52.911E,198,29.6306,33.6664
4789,2006/9/8,21:23:06, 23-30.654N,119-52.846E,198.8,29.6428,33.6655
4790,2006/9/8,21:24:06, 23-30.468N,119-52.788E,197.2,29.633,33.6639
4791,2006/9/8,21:25:06, 23-30.284N,119-52.730E,195.8,29.6234,33.6658
4792,2006/9/8,21:26:06, 23-30.098N,119-52.670E,196.5,29.6405,33.6715
4793,2006/9/8,21:27:06, 23-29.915N,119-52.614E,195,29.6378,33.6721
4794,2006/9/8,21:28:06, 23-29.731N,119-52.554E,196.7,29.6497,33.6696
4795,2006/9/8,21:29:06, 23-29.547N,119-52.498E,194.9,29.6659,33.6708
4796,2006/9/8,21:30:06, 23-29.365N,119-52.441E,195.2,29.6565,33.6705
4797,2006/9/8,21:31:06, 23-29.183N,119-52.382E,195.2,29.6345,33.668
4798,2006/9/8,21:32:06, 23-29.000N,119-52.333E,195.8,29.5782,33.6653
4799,2006/9/8,21:33:06, 23-28.818N,119-52.284E,196.1,29.6299,33.661
4800,2006/9/8,21:34:06, 23-28.635N,119-52.236E,193.9,29.6481,33.6529
4801,2006/9/8,21:35:06, 23-28.453N,119-52.186E,195.3,29.6535,33.6509
4802,2006/9/8,21:36:06, 23-28.271N,119-52.139E,195.2,29.6416,33.6465
4803,2006/9/8,21:37:06, 23-28.091N,119-52.090E,192.5,29.6594,33.6452
4804,2006/9/8,21:38:06, 23-27.908N,119-52.042E,194.9,29.6732,33.6431
4805,2006/9/8,21:39:06, 23-27.725N,119-51.991E,192.8,29.6783,33.6422
4806,2006/9/8,21:40:06, 23-27.543N,119-51.944E,192.8,29.6696,33.6454
4807,2006/9/8,21:41:06, 23-27.362N,119-51.895E,195.9,29.6731,33.6443
4808,2006/9/8,21:42:06, 23-27.181N,119-51.847E,193.6,29.658,33.64
4809,2006/9/8,21:43:06, 23-27.001N,119-51.796E,193,29.6664,33.6383
4810,2006/9/8,21:44:06, 23-26.819N,119-51.746E,194.7,29.6657,33.6442
4811,2006/9/8,21:45:06, 23-26.637N,119-51.693E,193.3,29.6687,33.6464
4812,2006/9/8,21:46:06, 23-26.456N,119-51.639E,194.4,29.6744,33.6426
4813,2006/9/8,21:47:06, 23-26.274N,119-51.588E,196.1,29.6752,33.6388
4814,2006/9/8,21:48:06, 23-26.093N,119-51.536E,195,29.6706,33.6346
4815,2006/9/8,21:49:06, 23-25.914N,119-51.483E,194.2,29.6661,33.6344
4816,2006/9/8,21:50:06, 23-25.736N,119-51.423E,201.5,29.6694,33.6342
4817,2006/9/8,21:51:06, 23-25.559N,119-51.356E,200,29.657,33.635
4818,2006/9/8,21:52:06, 23-25.385N,119-51.290E,200.2,29.6916,33.6404
4819,2006/9/8,21:53:07, 23-25.210N,119-51.216E,201.1,29.6956,33.6587
4820,2006/9/8,21:54:06, 23-25.036N,119-51.147E,201.1,29.7368,33.6734
4821,2006/9/8,21:55:06, 23-24.864N,119-51.072E,200.7,29.7728,33.6871
4822,2006/9/8,21:56:06, 23-24.695N,119-50.998E,200.7,29.7606,33.6986
4823,2006/9/8,21:57:06, 23-24.524N,119-50.927E,200.9,29.693,33.7143
4824,2006/9/8,21:58:06, 23-24.354N,119-50.862E,200.4,29.5887,33.7271
4825,2006/9/8,21:59:06, 23-24.184N,119-50.792E,197,29.5966,33.7151
4826,2006/9/8,22:00:06, 23-24.012N,119-50.731E,196.9,29.5372,33.6872
4827,2006/9/8,22:01:06, 23-23.839N,119-50.683E,193.6,29.4988,33.6751
4828,2006/9/8,22:02:06, 23-23.665N,119-50.636E,194.1,29.4677,33.6832
4829,2006/9/8,22:03:06, 23-23.489N,119-50.587E,194.4,29.3668,33.6884
4830,2006/9/8,22:04:06, 23-23.313N,119-50.541E,192.7,29.3784,33.6879
4831,2006/9/8,22:05:06, 23-23.138N,119-50.498E,191.9,29.3598,33.7006
4832,2006/9/8,22:06:06, 23-22.962N,119-50.456E,187.5,29.3804,33.7136
4833,2006/9/8,22:07:06, 23-22.792N,119-50.395E,197.1,29.3706,33.7222
4834,2006/9/8,22:08:06, 23-22.622N,119-50.337E,201.8,29.3031,33.7291
4835,2006/9/8,22:09:06, 23-22.448N,119-50.295E,194.4,29.3211,33.7325
4836,2006/9/8,22:10:06, 23-22.275N,119-50.249E,192.7,29.3314,33.7389
4837,2006/9/8,22:11:06, 23-22.101N,119-50.210E,190.4,29.3026,33.7429
4838,2006/9/8,22:12:06, 23-21.925N,119-50.173E,189.2,29.2878,33.7428
4839,2006/9/8,22:13:06, 23-21.749N,119-50.138E,190.6,29.3098,33.7396
4840,2006/9/8,22:14:06, 23-21.572N,119-50.103E,190,29.3081,33.7425
4841,2006/9/8,22:15:06, 23-21.394N,119-50.072E,190.7,29.3095,33.7423
4842,2006/9/8,22:16:06, 23-21.216N,119-50.037E,188.6,29.3247,33.7408
4843,2006/9/8,22:17:06, 23-21.037N,119-50.003E,190,29.3615,33.7389
4844,2006/9/8,22:18:06, 23-20.858N,119-49.969E,187.8,29.3305,33.7395
4845,2006/9/8,22:19:06, 23-20.677N,119-49.936E,187.7,29.3145,33.736
4846,2006/9/8,22:20:06, 23-20.495N,119-49.901E,188.3,29.3033,33.7352
4847,2006/9/8,22:21:06, 23-20.312N,119-49.870E,189.4,29.2911,33.7346
4848,2006/9/8,22:22:06, 23-20.130N,119-49.835E,190.7,29.2874,33.7367
4849,2006/9/8,22:23:06, 23-19.948N,119-49.801E,189.4,29.2716,33.741
4850,2006/9/8,22:24:06, 23-19.766N,119-49.769E,189.7,29.2661,33.7406
4851,2006/9/8,22:25:06, 23-19.585N,119-49.738E,189,29.2976,33.7359
4852,2006/9/8,22:26:06, 23-19.406N,119-49.708E,188.8,29.3066,33.7322
4853,2006/9/8,22:27:06, 23-19.229N,119-49.675E,188.2,29.305,33.7329
4854,2006/9/8,22:28:06, 23-19.051N,119-49.641E,189.7,29.3217,33.7301
4855,2006/9/8,22:29:06, 23-18.875N,119-49.609E,190.5,29.3723,33.7245
4856,2006/9/8,22:30:06, 23-18.700N,119-49.576E,190.5,29.3333,33.7267
4857,2006/9/8,22:31:06, 23-18.527N,119-49.543E,190.8,29.3215,33.7319
4858,2006/9/8,22:32:06, 23-18.356N,119-49.510E,192.6,29.3115,33.7233
4859,2006/9/8,22:33:06, 23-18.185N,119-49.477E,192.5,29.3297,33.7193
4860,2006/9/8,22:34:06, 23-18.015N,119-49.443E,191.9,29.3622,33.7186
4861,2006/9/8,22:35:06, 23-17.844N,119-49.409E,190.5,29.4092,33.7306
4862,2006/9/8,22:36:06, 23-17.673N,119-49.375E,190.7,29.3815,33.7427
4863,2006/9/8,22:37:06, 23-17.502N,119-49.340E,192.4,29.3983,33.7498
4864,2006/9/8,22:38:06, 23-17.332N,119-49.305E,192.2,29.4173,33.7415
4865,2006/9/8,22:39:06, 23-17.160N,119-49.270E,190.8,29.4309,33.7467
4866,2006/9/8,22:40:06, 23-16.989N,119-49.238E,193.6,29.4694,33.755
4867,2006/9/8,22:41:06, 23-16.819N,119-49.203E,193.6,29.4862,33.7636
4868,2006/9/8,22:42:06, 23-16.649N,119-49.168E,190.5,29.4786,33.7703
4869,2006/9/8,22:43:06, 23-16.479N,119-49.132E,189.6,29.4861,33.7685
4870,2006/9/8,22:44:06, 23-16.307N,119-49.094E,191,29.5162,33.7602
4871,2006/9/8,22:45:06, 23-16.140N,119-49.038E,195.5,29.5351,33.7544
4872,2006/9/8,22:46:07, 23-15.974N,119-48.984E,197.6,29.5512,33.7548
4873,2006/9/8,22:47:06, 23-15.808N,119-48.927E,196.6,29.5736,33.7537
4874,2006/9/8,22:48:06, 23-15.640N,119-48.868E,197.3,29.5551,33.7477
4875,2006/9/8,22:49:06, 23-15.472N,119-48.809E,196.2,29.5425,33.7393
4876,2006/9/8,22:50:06, 23-15.305N,119-48.750E,204.4,29.5078,33.7262
4877,2006/9/8,22:51:06, 23-15.155N,119-48.645E,218.2,29.5226,33.7151
4878,2006/9/8,22:52:06, 23-15.018N,119-48.509E,229.1,29.5049,33.7034
4879,2006/9/8,22:53:06, 23-14.891N,119-48.361E,225.8,29.4634,33.7088
4880,2006/9/8,22:54:07, 23-14.767N,119-48.214E,229.1,29.4648,33.7147
4881,2006/9/8,22:55:06, 23-14.644N,119-48.066E,230.1,29.4552,33.7193
4882,2006/9/8,22:56:06, 23-14.521N,119-47.916E,226.6,29.4506,33.7375
4883,2006/9/8,22:57:06, 23-14.398N,119-47.766E,227.1,29.4426,33.7462
4884,2006/9/8,22:58:06, 23-14.277N,119-47.615E,228.8,29.4004,33.743
4885,2006/9/8,22:59:07, 23-14.155N,119-47.466E,228.8,29.3899,33.7394
4886,2006/9/8,23:00:06, 23-14.035N,119-47.317E,232.1,29.2733,33.7436
4887,2006/9/8,23:01:06, 23-13.915N,119-47.167E,230.8,29.2523,33.7502
4888,2006/9/8,23:02:06, 23-13.795N,119-47.020E,234.4,29.1267,33.7606
4889,2006/9/8,23:03:06, 23-13.678N,119-46.866E,229,29.1753,33.7676
4890,2006/9/8,23:04:06, 23-13.560N,119-46.716E,229.6,29.0749,33.7862
4891,2006/9/8,23:05:06, 23-13.441N,119-46.571E,225.9,29.0717,33.794
4892,2006/9/8,23:06:06, 23-13.326N,119-46.423E,227.8,28.9954,33.8018
4893,2006/9/8,23:07:07, 23-13.207N,119-46.282E,227.9,29.0177,33.8184
4894,2006/9/8,23:08:06, 23-13.088N,119-46.141E,226.8,28.2975,33.829
4895,2006/9/8,23:09:06, 23-12.971N,119-45.997E,223.6,28.6516,33.828
4896,2006/9/8,23:10:06, 23-12.847N,119-45.863E,223.1,27.9886,33.8376
4897,2006/9/8,23:11:06, 23-12.727N,119-45.727E,221.5,27.6212,33.8404
4898,2006/9/8,23:12:06, 23-12.585N,119-45.615E,221.4,26.9045,33.8543
4899,2006/9/8,23:13:06, 23-12.440N,119-45.495E,216.2,26.9524,33.8769
4900,2006/9/8,23:14:06, 23-12.292N,119-45.370E,216.6,27.0662,33.9033
4901,2006/9/8,23:15:06, 23-12.133N,119-45.247E,218.5,27.0204,33.9169
4902,2006/9/8,23:16:06, 23-11.973N,119-45.117E,216.6,27.1418,33.92
4903,2006/9/8,23:17:06, 23-11.813N,119-44.985E,215.6,27.1136,33.921
4904,2006/9/8,23:18:06, 23-11.650N,119-44.852E,217.3,27.1249,33.9137
4905,2006/9/8,23:19:06, 23-11.487N,119-44.716E,217.7,27.1028,33.9081
4906,2006/9/8,23:20:07, 23-11.328N,119-44.575E,217.3,26.9899,33.9063
4907,2006/9/8,23:21:06, 23-11.170N,119-44.440E,218.3,26.0806,33.9035
4908,2006/9/8,23:22:06, 23-11.013N,119-44.302E,220.7,25.7463,33.9061
4909,2006/9/8,23:23:06, 23-10.860N,119-44.162E,219.3,26.096,33.9603
4910,2006/9/8,23:24:07, 23-10.728N,119-44.004E,221,27.5895,33.9939
4911,2006/9/8,23:25:06, 23-10.595N,119-43.872E,226,28.3299,33.9919
4912,2006/9/8,23:26:06, 23-10.468N,119-43.736E,226.8,29.0184,33.9666
4913,2006/9/8,23:27:06, 23-10.340N,119-43.601E,223.1,29.0129,33.8958
4914,2006/9/8,23:28:07, 23-10.214N,119-43.468E,227.3,28.9665,33.8343
4915,2006/9/8,23:29:06, 23-10.090N,119-43.334E,227.1,29.0231,33.8074
4916,2006/9/8,23:30:06, 23-09.969N,119-43.195E,224.8,29.0976,33.8067
4917,2006/9/8,23:31:06, 23-09.843N,119-43.061E,223.6,29.1503,33.8073
4918,2006/9/8,23:32:06, 23-09.722N,119-42.928E,222.5,29.1998,33.7985
4919,2006/9/8,23:33:07, 23-09.598N,119-42.800E,225.5,29.2318,33.7872
4920,2006/9/8,23:34:06, 23-09.476N,119-42.664E,224.4,29.2656,33.7752
4921,2006/9/8,23:35:06, 23-09.355N,119-42.525E,224.3,29.278,33.7638
4922,2006/9/8,23:36:06, 23-09.235N,119-42.396E,225.9,29.2718,33.7505
4923,2006/9/8,23:37:06, 23-09.114N,119-42.259E,227.2,29.2823,33.742
4924,2006/9/8,23:38:06, 23-08.994N,119-42.123E,228.4,29.2758,33.7403
4925,2006/9/8,23:39:06, 23-08.873N,119-41.987E,227.3,29.2997,33.7432
4926,2006/9/8,23:40:06, 23-08.756N,119-41.848E,226.7,29.3017,33.7436
4927,2006/9/8,23:41:07, 23-08.635N,119-41.709E,229.2,29.3185,33.7382
4928,2006/9/8,23:42:07, 23-08.512N,119-41.571E,224.9,29.3588,33.7437
4929,2006/9/8,23:43:06, 23-08.388N,119-41.429E,223,29.3684,33.7408
4930,2006/9/8,23:44:06, 23-08.264N,119-41.284E,228.1,29.3985,33.7286
4931,2006/9/8,23:45:07, 23-08.139N,119-41.139E,227.9,29.4185,33.722
4932,2006/9/8,23:46:07, 23-08.015N,119-40.992E,228.4,29.4244,33.6994
4933,2006/9/8,23:47:06, 23-07.890N,119-40.846E,229.9,29.4301,33.6718
4934,2006/9/8,23:48:06, 23-07.765N,119-40.701E,226.8,29.4424,33.6716
4935,2006/9/8,23:49:07, 23-07.642N,119-40.557E,229.4,29.4277,33.6763
4936,2006/9/8,23:50:07, 23-07.517N,119-40.413E,227.5,29.425,33.6799
4937,2006/9/8,23:51:06, 23-07.395N,119-40.269E,225.4,29.4341,33.6871
4938,2006/9/8,23:52:06, 23-07.272N,119-40.127E,223.9,29.4505,33.7132
4939,2006/9/8,23:53:07, 23-07.145N,119-39.991E,225.5,29.4403,33.7373
4940,2006/9/8,23:54:07, 23-07.019N,119-39.852E,226,29.482,33.7339
4941,2006/9/8,23:55:07, 23-06.895N,119-39.706E,228.4,29.4967,33.7269
4942,2006/9/8,23:56:06, 23-06.772N,119-39.569E,227.4,29.4962,33.7179
4943,2006/9/8,23:57:07, 23-06.647N,119-39.427E,227.6,29.5133,33.7006
4944,2006/9/8,23:58:07, 23-06.521N,119-39.286E,226.1,29.5302,33.6775
4945,2006/9/8,23:59:07, 23-06.394N,119-39.143E,223.8,29.519,33.661
4946,2006/9/9,0:00:06, 23-06.271N,119-39.005E,224.5,29.5661,33.6346
4947,2006/9/9,0:01:07, 23-06.145N,119-38.865E,226.8,29.598,33.5979
4948,2006/9/9,0:02:07, 23-06.018N,119-38.723E,226.5,29.6309,33.568
4949,2006/9/9,0:03:07, 23-05.889N,119-38.585E,222.5,29.6449,33.5618
4950,2006/9/9,0:04:06, 23-05.763N,119-38.448E,223.4,29.59,33.5313
4951,2006/9/9,0:05:06, 23-05.640N,119-38.310E,226.6,29.5865,33.4997
4952,2006/9/9,0:06:07, 23-05.516N,119-38.173E,227.9,29.6199,33.5582
4953,2006/9/9,0:07:07, 23-05.389N,119-38.036E,226.6,29.6626,33.5773
4954,2006/9/9,0:08:07, 23-05.263N,119-37.894E,225.9,29.6736,33.5693
4955,2006/9/9,0:09:06, 23-05.141N,119-37.757E,225.4,29.6494,33.5474
4956,2006/9/9,0:10:07, 23-05.016N,119-37.618E,223.8,29.6635,33.4966
4957,2006/9/9,0:11:07, 23-04.892N,119-37.479E,226.9,29.6637,33.4687
4958,2006/9/9,0:12:07, 23-04.766N,119-37.338E,228.3,29.6712,33.4728
4959,2006/9/9,0:13:06, 23-04.643N,119-37.202E,224.3,29.6778,33.4736
4960,2006/9/9,0:14:07, 23-04.520N,119-37.065E,226.8,29.6817,33.4772
4961,2006/9/9,0:15:07, 23-04.398N,119-36.927E,226.4,29.698,33.4836
4962,2006/9/9,0:16:07, 23-04.274N,119-36.791E,223.1,29.7036,33.4853
4963,2006/9/9,0:17:06, 23-04.158N,119-36.655E,224.8,29.699,33.4887
4964,2006/9/9,0:18:07, 23-04.039N,119-36.518E,228.2,29.7014,33.4903
4965,2006/9/9,0:19:07, 23-03.920N,119-36.383E,226.4,29.6985,33.4851
4966,2006/9/9,0:20:07, 23-03.801N,119-36.242E,229.3,29.6923,33.4836
4967,2006/9/9,0:21:07, 23-03.682N,119-36.107E,227,29.6755,33.5185
4968,2006/9/9,0:22:07, 23-03.567N,119-35.974E,226.3,29.689,33.5687
4969,2006/9/9,0:23:07, 23-03.456N,119-35.834E,228.1,29.6906,33.5936
4970,2006/9/9,0:24:07, 23-03.337N,119-35.710E,215.5,29.7145,33.6183
4971,2006/9/9,0:25:06, 23-03.217N,119-35.589E,221.6,29.6824,33.6296
4972,2006/9/9,0:26:06, 23-03.095N,119-35.475E,223.3,29.6753,33.6201
4973,2006/9/9,0:27:07, 23-02.976N,119-35.356E,223.7,29.6667,33.6122
4974,2006/9/9,0:28:07, 23-02.859N,119-35.237E,221.1,29.6671,33.6192
4975,2006/9/9,0:29:07, 23-02.741N,119-35.113E,223.9,29.6656,33.6214
4976,2006/9/9,0:30:06, 23-02.629N,119-34.991E,221.5,29.6626,33.616
4977,2006/9/9,0:31:07, 23-02.513N,119-34.871E,223.7,29.6694,33.6066
4978,2006/9/9,0:32:07, 23-02.396N,119-34.751E,221.5,29.6829,33.5884
4979,2006/9/9,0:33:07, 23-02.279N,119-34.627E,222.7,29.6779,33.5772
4980,2006/9/9,0:34:07, 23-02.164N,119-34.503E,223.1,29.6841,33.5722
4981,2006/9/9,0:35:07, 23-02.049N,119-34.384E,224.3,29.6788,33.5627
4982,2006/9/9,0:36:07, 23-01.935N,119-34.258E,223.9,29.6917,33.5555
4983,2006/9/9,0:37:07, 23-01.818N,119-34.132E,225.2,29.701,33.5559
4984,2006/9/9,0:38:06, 23-01.703N,119-34.010E,222.5,29.7123,33.5525
4985,2006/9/9,0:39:07, 23-01.586N,119-33.887E,224.7,29.6994,33.5536
4986,2006/9/9,0:40:07, 23-01.472N,119-33.757E,225.3,29.6905,33.5535
4987,2006/9/9,0:41:07, 23-01.353N,119-33.633E,222.5,29.6795,33.5554
4988,2006/9/9,0:42:07, 23-01.231N,119-33.506E,225,29.6652,33.5576
4989,2006/9/9,0:43:06, 23-01.115N,119-33.382E,225.8,29.6604,33.5573
4990,2006/9/9,0:44:07, 23-00.997N,119-33.255E,225.4,29.6511,33.5608
4991,2006/9/9,0:45:07, 23-00.878N,119-33.129E,226.4,29.6816,33.5597
4992,2006/9/9,0:46:07, 23-00.760N,119-32.997E,225.6,29.6655,33.5535
4993,2006/9/9,0:47:07, 23-00.643N,119-32.867E,224.9,29.6735,33.5434
4994,2006/9/9,0:48:07, 23-00.528N,119-32.738E,225.2,29.6823,33.5271
4995,2006/9/9,0:49:07, 23-00.409N,119-32.613E,225.4,29.6427,33.5134
4996,2006/9/9,0:50:07, 23-00.288N,119-32.484E,223.9,29.6458,33.4973
4997,2006/9/9,0:51:06, 23-00.170N,119-32.357E,225.9,29.6121,33.4938
4998,2006/9/9,0:52:07, 23-00.053N,119-32.226E,224.6,29.669,33.4961
4999,2006/9/9,0:53:07, 22-59.934N,119-32.098E,224.2,29.6416,33.5086
5000,2006/9/9,0:54:07, 22-59.816N,119-31.969E,224.7,29.6613,33.5117
5001,2006/9/9,0:55:07, 22-59.696N,119-31.837E,221.1,29.6632,33.5135
5002,2006/9/9,0:56:07, 22-59.579N,119-31.711E,224.7,29.6749,33.5082
5003,2006/9/9,0:57:07, 22-59.463N,119-31.582E,224.4,29.7035,33.5033
5004,2006/9/9,0:58:07, 22-59.344N,119-31.456E,225.6,29.6788,33.5021
5005,2006/9/9,0:59:07, 22-59.228N,119-31.327E,224.1,29.7101,33.4928
5006,2006/9/9,1:00:06, 22-59.114N,119-31.201E,224.9,29.7166,33.4862
5007,2006/9/9,1:01:07, 22-59.000N,119-31.073E,226.3,29.7168,33.4742
5008,2006/9/9,1:02:07, 22-58.887N,119-30.945E,224.5,29.7053,33.4604
5009,2006/9/9,1:03:07, 22-58.770N,119-30.815E,225.2,29.6976,33.4507
5010,2006/9/9,1:04:06, 22-58.659N,119-30.687E,225.5,29.6939,33.4389
5011,2006/9/9,1:05:07, 22-58.545N,119-30.558E,227.7,29.6883,33.4265
5012,2006/9/9,1:06:07, 22-58.431N,119-30.429E,224.3,29.6847,33.4199
5013,2006/9/9,1:07:07, 22-58.316N,119-30.298E,227.7,29.6601,33.4179
5014,2006/9/9,1:08:07, 22-58.201N,119-30.169E,228.2,29.6506,33.4155
5015,2006/9/9,1:09:06, 22-58.088N,119-30.040E,228.3,29.6512,33.412
5016,2006/9/9,1:10:07, 22-57.970N,119-29.913E,226.8,29.6101,33.4015
5017,2006/9/9,1:11:07, 22-57.856N,119-29.781E,227.2,29.605,33.3829